TimeCDT,TemperatureF,Dew PointF,Humidity,Sea Level PressureIn,VisibilityMPH,Wind Direction,Wind SpeedMPH,Gust SpeedMPH,PrecipitationIn,Events,Conditions,WindDirDegrees,DateUTC
12:08 AM,26.6,24.8,93,30.34,10.0,Calm,Calm,-,N/A,,Overcast,0,2012-10-28 05:08:00
12:28 AM,26.6,24.8,93,30.34,10.0,Calm,Calm,-,N/A,,Overcast,0,2012-10-28 05:28:00
12:48 AM,24.8,23.0,93,30.34,10.0,Calm,Calm,-,N/A,,Overcast,0,2012-10-28 05:48:00
1:08 AM,24.8,23.0,93,30.35,10.0,Calm,Calm,-,N/A,,Overcast,0,2012-10-28 06:08:00
1:28 AM,26.6,24.8,93,30.34,10.0,Calm,Calm,-,N/A,,Overcast,0,2012-10-28 06:28:00
1:48 AM,26.6,23.0,86,30.34,10.0,Calm,Calm,-,N/A,,Overcast,0,2012-10-28 06:48:00
2:08 AM,24.8,21.2,86,30.35,10.0,Calm,Calm,-,N/A,,Overcast,0,2012-10-28 07:08:00
2:28 AM,24.8,19.4,80,30.34,10.0,Calm,Calm,-,N/A,,Overcast,0,2012-10-28 07:28:00
2:48 AM,23.0,19.4,86,30.34,10.0,Calm,Calm,-,N/A,,Overcast,0,2012-10-28 07:48:00
3:08 AM,21.2,19.4,93,30.34,10.0,Calm,Calm,-,N/A,,Overcast,0,2012-10-28 08:08:00
3:28 AM,21.2,17.6,86,30.34,10.0,Calm,Calm,-,N/A,,Overcast,0,2012-10-28 08:28:00
3:48 AM,21.2,17.6,86,30.33,10.0,Calm,Calm,-,N/A,,Overcast,0,2012-10-28 08:48:00
4:08 AM,21.2,19.4,93,30.33,10.0,Calm,Calm,-,N/A,,Overcast,0,2012-10-28 09:08:00
4:28 AM,21.2,19.4,93,30.33,10.0,Calm,Calm,-,N/A,,Overcast,0,2012-10-28 09:28:00
4:48 AM,21.2,19.4,93,30.33,10.0,Calm,Calm,-,N/A,,Overcast,0,2012-10-28 09:48:00
5:08 AM,21.2,19.4,93,30.34,10.0,Calm,Calm,-,N/A,,Overcast,0,2012-10-28 10:08:00
5:28 AM,23.0,21.2,93,30.34,7.0,Calm,Calm,-,N/A,,Overcast,0,2012-10-28 10:28:00
5:48 AM,24.8,21.2,86,30.34,10.0,Calm,Calm,-,N/A,,Overcast,0,2012-10-28 10:48:00
6:08 AM,24.8,21.2,86,30.34,4.0,Calm,Calm,-,N/A,Snow,Light Snow,0,2012-10-28 11:08:00
6:28 AM,24.8,21.2,86,30.34,1.8,Calm,Calm,-,N/A,Snow,Light Snow,0,2012-10-28 11:28:00
6:47 AM,23.0,21.2,93,30.35,1.2,Calm,Calm,-,N/A,Snow,Light Snow,0,2012-10-28 11:47:00
7:08 AM,23.0,21.2,93,30.35,0.5,Calm,Calm,-,N/A,Snow,Snow,0,2012-10-28 12:08:00
7:28 AM,23.0,21.2,93,30.35,0.5,Calm,Calm,-,0.01,Snow,Snow,0,2012-10-28 12:28:00
7:48 AM,23.0,21.2,93,30.35,0.5,Calm,Calm,-,0.02,Snow,Light Snow,0,2012-10-28 12:48:00
8:08 AM,23.0,21.2,93,30.35,0.8,Calm,Calm,-,N/A,Snow,Light Snow,0,2012-10-28 13:08:00
8:28 AM,24.8,21.2,86,30.35,0.8,Calm,Calm,-,0.01,Snow,Light Snow,0,2012-10-28 13:28:00
8:48 AM,24.8,21.2,86,30.35,0.8,Calm,Calm,-,0.02,Snow,Light Snow,0,2012-10-28 13:48:00
9:27 AM,24.8,23.0,93,30.35,3.0,Calm,Calm,-,N/A,Snow,Light Snow,0,2012-10-28 14:27:00
9:48 AM,24.8,23.0,93,30.34,10.0,Calm,Calm,-,N/A,Snow,Light Snow,0,2012-10-28 14:48:00
10:08 AM,24.8,23.0,93,30.34,10.0,Calm,Calm,-,N/A,,Overcast,0,2012-10-28 15:08:00
10:28 AM,24.8,23.0,93,30.34,10.0,NE,3.5,-,N/A,,Overcast,40,2012-10-28 15:28:00
10:47 AM,24.8,24.8,100,30.34,10.0,NE,3.5,-,N/A,,Overcast,40,2012-10-28 15:47:00
11:07 AM,26.6,24.8,93,30.34,10.0,Calm,Calm,-,N/A,,Overcast,0,2012-10-28 16:07:00
11:28 AM,26.6,24.8,93,30.34,10.0,Calm,Calm,-,N/A,,Overcast,0,2012-10-28 16:28:00
11:47 AM,26.6,24.8,93,30.33,10.0,Calm,Calm,-,N/A,,Overcast,0,2012-10-28 16:47:00
12:07 PM,26.6,26.6,100,30.33,10.0,Calm,Calm,-,N/A,,Overcast,0,2012-10-28 17:07:00
12:28 PM,26.6,26.6,100,30.33,10.0,Calm,Calm,-,N/A,,Overcast,0,2012-10-28 17:28:00
12:48 PM,26.6,26.6,100,30.32,10.0,Calm,Calm,-,N/A,,Overcast,0,2012-10-28 17:48:00
1:08 PM,28.4,26.6,93,30.32,10.0,Calm,Calm,-,N/A,,Overcast,0,2012-10-28 18:08:00
1:28 PM,28.4,26.6,93,30.32,10.0,Calm,Calm,-,N/A,,Overcast,0,2012-10-28 18:28:00
1:48 PM,28.4,26.6,93,30.32,10.0,Calm,Calm,-,N/A,,Overcast,0,2012-10-28 18:48:00
2:08 PM,28.4,28.4,100,30.31,10.0,North,4.6,-,N/A,,Overcast,360,2012-10-28 19:08:00
2:28 PM,28.4,28.4,100,30.31,10.0,Calm,Calm,-,N/A,,Overcast,0,2012-10-28 19:28:00
2:48 PM,28.4,28.4,100,30.31,10.0,Calm,Calm,-,N/A,,Overcast,0,2012-10-28 19:48:00
3:08 PM,28.4,28.4,100,30.31,10.0,Calm,Calm,-,N/A,,Overcast,0,2012-10-28 20:08:00
3:28 PM,28.4,28.4,100,30.32,10.0,Calm,Calm,-,N/A,,Overcast,0,2012-10-28 20:28:00
3:48 PM,28.4,28.4,100,30.32,10.0,Calm,Calm,-,N/A,,Overcast,0,2012-10-28 20:48:00
4:08 PM,28.4,28.4,100,30.32,10.0,Calm,Calm,-,N/A,,Overcast,0,2012-10-28 21:08:00
4:28 PM,28.4,28.4,100,30.32,10.0,Calm,Calm,-,N/A,,Overcast,0,2012-10-28 21:28:00
4:48 PM,28.4,28.4,100,30.33,10.0,Calm,Calm,-,N/A,,Overcast,0,2012-10-28 21:48:00
5:07 PM,28.4,28.4,100,30.33,10.0,Calm,Calm,-,N/A,,Overcast,0,2012-10-28 22:07:00
5:28 PM,28.4,26.6,93,30.33,10.0,Calm,Calm,-,N/A,,Overcast,0,2012-10-28 22:28:00
5:48 PM,28.4,26.6,93,30.33,10.0,Calm,Calm,-,N/A,,Overcast,0,2012-10-28 22:48:00
6:08 PM,26.6,26.6,100,30.33,10.0,Calm,Calm,-,N/A,,Overcast,0,2012-10-28 23:08:00
6:28 PM,26.6,26.6,100,30.33,10.0,Calm,Calm,-,N/A,,Overcast,0,2012-10-28 23:28:00
6:48 PM,26.6,24.8,93,30.33,10.0,Calm,Calm,-,N/A,,Overcast,0,2012-10-28 23:48:00
7:08 PM,24.8,23.0,93,30.33,10.0,Calm,Calm,-,N/A,,Scattered Clouds,0,2012-10-29 00:08:00
7:28 PM,23.0,21.2,93,30.33,10.0,Calm,Calm,-,N/A,,Scattered Clouds,0,2012-10-29 00:28:00
7:47 PM,21.2,21.2,100,30.33,10.0,Calm,Calm,-,N/A,,Scattered Clouds,0,2012-10-29 00:47:00
8:08 PM,23.0,21.2,93,30.34,10.0,Calm,Calm,-,N/A,,Mostly Cloudy,0,2012-10-29 01:08:00
8:48 PM,24.8,24.8,100,30.34,10.0,Calm,Calm,-,N/A,,Overcast,0,2012-10-29 01:48:00
9:08 PM,24.8,24.8,100,30.35,10.0,Calm,Calm,-,N/A,,Overcast,0,2012-10-29 02:08:00
9:27 PM,24.8,24.8,100,30.35,10.0,Calm,Calm,-,N/A,,Overcast,0,2012-10-29 02:27:00
9:48 PM,24.8,24.8,100,30.35,10.0,Calm,Calm,-,N/A,,Overcast,0,2012-10-29 02:48:00
10:08 PM,24.8,24.8,100,30.35,10.0,Calm,Calm,-,N/A,,Overcast,0,2012-10-29 03:08:00
10:28 PM,26.6,24.8,93,30.36,10.0,Calm,Calm,-,N/A,,Overcast,0,2012-10-29 03:28:00
10:48 PM,26.6,24.8,93,30.36,10.0,Calm,Calm,-,N/A,,Overcast,0,2012-10-29 03:48:00
11:08 PM,26.6,24.8,93,30.36,10.0,Calm,Calm,-,N/A,,Overcast,0,2012-10-29 04:08:00
11:47 PM,26.6,24.8,93,30.35,10.0,Calm,Calm,-,N/A,,Overcast,0,2012-10-29 04:47:00